OPS 4682 DEB, 18964

Orbit data source: Space-Track

OPS 4682 DEB, 18964 is space debris in LEO originally from a launch on Sat, 03 Apr 1965 UTC launched from the Air Force Western Test Range (AFWTR). Debris objects in space refer to the collection of defunct objects orbiting the Earth. Examples of debris include non-operational satellites, rocket bodies, and fragments generated from explosions, collisions, or faulty payload assembly.

Loading next visibility...
Identifier
18964, 1965-027AM
Orbit
LEO
Country
Flag of USUS
Related business
Manufacturer
Unknown
Mission
Spacecraft
Bus & Motor
Unknown
Mass
Unknown
Launch date (UTC)
1965-04-03 (61 years ago)
Launch vehicle
Unknown
Launch site
Air Force Western Test Range (AFWTR)
Object type
Payload
Rocket body
Debris
Shape & HBR
Unknown shape, 0.1 m
Radar Cross Section
Small (<0.1 m²)

Expand to show TLE details & history
Last TLE update: 10 hours ago

TLE from 10 hours ago
0 OPS 4682 DEB
1 18964U 65027AM  25293.13969473  .00000266  00000-0  88664-3 0  9990
2 18964  90.2461 354.5364 0029366  25.1114   4.1806 12.97583595824335
Epoch: 2025-10-20T03:21Z
TLE epoch observation values (Epoch: 2025-10-20T03:21:09.624Z)
Latitude
29.36016°
Longitude
-84.73774°
Altitude
1,252.816 km
Speed
7.242 km/s
True Right ascension
23h 37m 35s
True Declination
29° 13' 23"
Sunlit
Object was in full shadow at epoch
Visualization orbit readout
Latitude
Unknown
Longitude
Unknown
Altitude
Unknown
Speed
Unknown
Apparent Right ascension
Unknown
Apparent Declination
Unknown
Sunlit
N/A
Visualization observer readout
Local Sidereal Time
08:35:00
Azimuth
Unknown
Elevation
Unknown
Doppler factor
Unknown
Orbital elements
Apogee altitude
1,291.155 km
Perigee altitude
1,246.244 km
Semi-major axis
7,646.837 km
Eccentricity
0.00294
Inclination
90.2461°
RAAN
354.5364°
Arg. of periapsis
25.1114°
True anomaly
4.20522°
Mean anomaly
4.1806°
Eccentric anomaly
4.1929°
Mean motion
3.24579 °/min
Orbital period
110.91 mins
BSTAR
0.00088664
Loading maneuver chart data...
Computing Atmospheric mass density...
Loading historical data...
Loading historical data...
Loading historical data...
Loading historical data...
Loading historical data...
Loading historical data...
Loading historical data...

Documentation

Showing up to 5 results
|